Location: Bottens
(46.6171°N, 6.6605°E)
Time: 08:44:02
(UTC+00:00)

ATLAS 5 CENTAUR R/B - Visible Passes

Search period start: 28 October 2021 00:00
Search period end: 07 November 2021 00:00
Orbit: 499 x 1157 km, 63.3° (Epoch: 25 October)

Date Brightness Start Highest point End Pass type
(mag) Time Alt. Az. Time Alt. Az. Time Alt. Az.
28 Oct 4.2 18:20:37 10° NW 18:22:35 13° NNW 18:24:40 10° NNE visible
29 Oct 4.1 18:01:00 10° NW 18:03:03 13° NNW 18:05:15 10° NNE visible
29 Oct 4.6 19:47:46 10° NNW 19:47:54 10° NNW 19:47:54 10° NNW visible
30 Oct 4.1 17:41:24 10° NW 17:43:32 13° NNW 17:45:48 10° NNE visible
30 Oct 4.4 19:28:19 10° NNW 19:28:59 11° N 19:28:59 11° N visible
31 Oct 4.0 17:21:48 10° NW 17:24:00 13° NNW 17:26:22 10° NNE visible
31 Oct 4.3 19:08:53 10° NNW 19:10:04 12° N 19:10:04 12° N visible
01 Nov 4.0 17:02:11 10° NW 17:04:28 14° NNW 17:06:56 10° NNE visible
01 Nov 4.2 18:49:27 10° NNW 18:51:09 12° N 18:51:09 12° N visible
02 Nov 3.9 16:42:35 10° NW 16:44:56 14° NNW 16:47:29 10° NNE visible
02 Nov 4.2 18:30:00 10° NNW 18:31:44 12° N 18:32:14 12° NNE visible
03 Nov 4.2 18:10:32 10° NNW 18:12:11 11° N 18:13:20 11° NNE visible
03 Nov 4.7 19:54:29 10° NNW 19:54:50 12° NNW 19:54:50 12° NNW visible
04 Nov 4.2 17:51:04 10° NNW 17:52:38 11° N 17:54:17 10° NNE visible
04 Nov 4.4 19:35:03 10° NNW 19:35:56 14° NNW 19:35:56 14° NNW visible
05 Nov 4.1 17:31:35 10° NNW 17:33:06 11° N 17:34:40 10° NNE visible
05 Nov 4.2 19:15:38 10° NNW 19:17:03 16° N 19:17:03 16° N visible
06 Nov 4.1 17:12:06 10° NNW 17:13:33 11° N 17:15:03 10° NNE visible
06 Nov 4.0 18:56:12 10° NNW 18:58:11 18° N 18:58:11 18° N visible
